Seretse Khama, Botswana

8:37 AM CAT on November 18, 2017 (GMT +0200)
Seretse Khama

Weather History for FBSK - August, 2013

Change the Weather History Date:

Monday, August 5, 2013

  Actual Average Record
Temperature  
Mean Temperature 58 °F -  
Max Temperature 73 °F 76 °F 82 °F (2004)
Min Temperature 44 °F 46 °F 33 °F (2016)
Degree Days  
Heating Degree Days 6    
Growing Degree Days 8 (Base 50)    
Moisture  
Dew Point 32 °F    
Average Humidity 42    
Maximum Humidity 66    
Minimum Humidity 16    
Precipitation  
Precipitation 0.00 in - - ()
Sea Level Pressure  
Sea Level Pressure 30.26 in    
Wind  
Wind Speed 4 mph ()    
Max Wind Speed 9 mph    
Max Gust Speed -    
Visibility 6.2 miles    
Events      
Averages and records for this station are not official NWS values.
T = Trace of Precipitation, MM = Missing Value Source: Averaged Metar Reports

Daily Weather History Graph

Daily Weather History Graph

Search for Another Location

Airport or City:

Trip Planner

Search our weather history database for the weather conditions in past years. The results will help you decide how hot, cold, wet, or windy it might be!

Date:

Astronomy

Aug. 05, 2013 Rise Set
Actual Time 6:50 AM CAT 5:54 PM CAT
Civil Twilight 6:26 AM CAT 6:18 PM CAT
Nautical Twilight 5:59 AM CAT 6:45 PM CAT
Astronomical Twilight 5:32 AM CAT 7:12 PM CAT
Moon 5:29 AM CAT (8/5) 4:48 PM CAT (8/5)
Length of Visible Light 11h 51m
Length of Day
11h 03m
Waning Crescent, 2% of the Moon is Illuminated
Aug 5
Waning Crescent
Aug 6
New
Aug 14
First Quarter
Aug 21
Full
Aug 28
Last Quarter

Hourly Weather History & Observations

Time (CAT) Temp. Windchill Dew Point Humidity Pressure Visibility Wind Dir Wind Speed Gust Speed Precip Events Conditions
12:00 AM 51.8 °F - 33.8 °F 50% 30.30 in - Variable 1.2 mph - N/A   Clear
1:00 AM 50.0 °F - 33.8 °F 54% 30.30 in - SW 3.5 mph - N/A   Clear
2:00 AM 50.0 °F - 33.8 °F 54% 30.30 in - SE 3.5 mph - N/A   Clear
3:00 AM 48.2 °F - 32.0 °F 54% 30.27 in - SE 9.2 mph - N/A   Clear
4:00 AM 48.2 °F - 32.0 °F 54% 30.27 in - South 4.6 mph - N/A   Clear
5:00 AM 46.4 °F 42.9 °F 32.0 °F 57% 30.27 in - SSE 6.9 mph - N/A   Clear
6:00 AM 46.4 °F 42.9 °F 33.8 °F 62% 30.30 in - East 6.9 mph - N/A   Clear
7:00 AM 44.6 °F 42.2 °F 33.8 °F 66% 30.30 in - East 4.6 mph - N/A   Clear
8:00 AM 50.0 °F - 35.6 °F 58% 30.33 in - East 5.8 mph - N/A   Clear
9:00 AM 55.4 °F - 41.0 °F 58% 30.33 in - ENE 8.1 mph - N/A   Clear
10:00 AM 59.0 °F - 41.0 °F 51% 30.33 in - ENE 9.2 mph - N/A   Clear
11:00 AM 64.4 °F - 41.0 °F 42% 30.33 in - NE 4.6 mph - N/A   Clear
12:00 PM 68.0 °F - 37.4 °F 33% 30.30 in 6.2 mi NNE 5.8 mph - N/A   Partly Cloudy
1:00 PM 69.8 °F - 33.8 °F 27% 30.27 in 6.2 mi East 6.9 mph - N/A   Scattered Clouds
2:00 PM 71.6 °F - 23.0 °F 16% 30.24 in 6.2 mi East 8.1 mph - N/A   Scattered Clouds
3:00 PM 73.4 °F - 28.4 °F 19% 30.21 in 6.2 mi Variable 3.5 mph - N/A   Scattered Clouds
4:00 PM 69.8 °F - 28.4 °F 21% 30.21 in 6.2 mi ESE 3.5 mph - N/A   Scattered Clouds
5:00 PM 69.8 °F - 28.4 °F 21% 30.18 in 6.2 mi South 3.5 mph - N/A   Partly Cloudy
6:00 PM 66.2 °F - 28.4 °F 24% 30.18 in - ENE 4.6 mph - N/A   Clear
7:00 PM 62.6 °F - 28.4 °F 27% 30.21 in - NNE 4.6 mph - N/A   Clear
8:00 PM 59.0 °F - 30.2 °F 34% 30.21 in - NNE 1.2 mph - N/A   Clear
9:00 PM 53.6 °F - 28.4 °F 38% 30.21 in - Variable 2.3 mph - N/A   Clear
10:00 PM 53.6 °F - 28.4 °F 38% 30.24 in - Variable 2.3 mph - N/A   Clear
11:00 PM 48.2 °F - 26.6 °F 43% 30.24 in - Variable 2.3 mph - N/A   Clear